Terminal Aerodrome Forecast
Issued by NWS

Home | Current Version | Previous Version | Text Only | Print | Product List | Glossary On
Versions: 1 2 3 4 5 6 7 8 9 10 11 12 13 14 15
000
FTUS44 KEPZ 040308 AAA
TAFLRU
TAF AMD
KLRU 040308Z 0403/0424 16008G16KT P6SM VCTS BKN060CB
      TEMPO 0403/0405 VRB25G35KT -TSRA BKN040CB
     FM040600 11008KT P6SM SCT080 BKN250
     FM041800 13010KT P6SM SCT090 SCT250=

USA.gov is the U.S. government's official web portal to all federal, state and local government web resources and services.